STARLINK-37853, 69498

Orbit data source: Space-Track

STARLINK-37853, 69498 is a payload satellite owned by SpaceX/Seattle (US) in SSO that was launched on Thu, 11 Jun 2026 UTC via an FALCON 9 launch vehicle from the Air Force Western Test Range (AFWTR). Payload-class satellites include a variety of spacecraft equipped with specific instruments for various scientific and technological missions. These include communications satellites like Starlink; space stations such as the ISS; scientific satellites like the Hubble; Earth observation satellites from companies like Planet Labs, Umbra, and HawkEye 360; GPS; miniature CubeSats for education and research; and military/defense satellites.

Loading next visibility...
Identifier
69498, 2026-131W
Orbit
SSO
Country
Flag of USUS
Related business
Manufacturer
SpaceX/Seattle
Mission
Operational spacecraft
Bus & Motor
STARLINK V2MO, Unknown motor
Mass
575 kg wet, ~530 kg dry
Launch date (UTC)
2026-06-11 (1 week ago)
Launch vehicle
FALCON 9
Launch site
Air Force Western Test Range (AFWTR)
Object type
Payload
Rocket body
Debris
Shape & HBR
Unknown
Radar Cross Section
RCS unknown

Expand to show TLE details & history
Last TLE update: 10 hours ago

TLE from 10 hours ago
0 STARLINK-37853
1 69498U 26131W   26171.41668980 -.01132792  38271-3 -33005-2 0  9992
2 69498  97.2830 191.8761 0000979  95.0054 254.2216 15.92880434  2590
Epoch: 2026-06-20T10:00Z
TLE epoch observation values (Epoch: 2026-06-20T10:00:01.998Z)
Latitude
-10.89037°
Longitude
134.63714°
Altitude
299.643 km
Speed
7.727 km/s
True Right ascension
12h 53m 06s
True Declination
-10° 49' 21"
Sunlit
Object was in partial shadow at epoch
Visualization orbit readout
Latitude
Unknown
Longitude
Unknown
Altitude
Unknown
Speed
Unknown
Apparent Right ascension
Unknown
Apparent Declination
Unknown
Sunlit
N/A
Visualization observer readout
Local Sidereal Time
07:13:37
Azimuth
Unknown
Elevation
Unknown
Doppler factor
Unknown
Orbital elements
Apogee altitude
291.744 km
Perigee altitude
290.438 km
Semi-major axis
6,669.228 km
Eccentricity
0.0001
Inclination
97.283°
RAAN
191.8761°
Arg. of periapsis
95.0054°
True anomaly
254.2108°
Mean anomaly
254.2216°
Eccentric anomaly
254.2162°
Mean motion
3.98501 °/min
Orbital period
90.34 mins
BSTAR
-0.0033005
Loading maneuver chart data...
Computing Atmospheric mass density...
Loading historical data...
Loading historical data...
Loading historical data...
Loading historical data...
Loading historical data...
Loading historical data...
Loading historical data...

Documentation

Showing up to 5 results
|